Back to catalog

TIANHUI 5A

AliveScienceSSO
NORAD 58199·PAYLOAD·🇨🇳 China

Launched Oct 31, 2023 from Taiyuan Satellite Launch Center

Loading…

Next Passes (next 24 hours)

TLE

FreshSource: Space-Track

Epoch: Sep 14, 2026, 11:18 UTC

1 58199U 23168A   26257.47123618  .00000267  00000-0  35392-4 0  9997
2 58199  97.8214 263.5822 0001535  89.4726 270.6667 14.87584771155875

Track TIANHUI 5A in real time with AllMySat

Download on the App Store